Flag for Norway Weather past 2 weeks in Drammen, Norway

Now
39 °F

Scattered clouds.


Feels Like: 29 °F
Forecast: 18 / 42 °F
Wind: 23 mph from Southwest

Location: Oslo / Fornebu

Current Time: Mar 30, 2015 at 8:32:24 PM

Latest Report: Mar 30, 2015 at 7:50 PM


Visibility: N/A

Pressure: 29.12 "Hg

Humidity: 61%

Dew point: 27 °F

Location of DrammenLocation

Historic Weather in Drammen — Graph

°F

Drammen temperature yesterday

Maximum temperature yesterday: 45 °F (at 2:50 PM)
Minimum temperature yesterday: 37 °F (at 9:20 PM)
Average temperature yesterday: 42 °F

Past Weeks' High & Low Weather Summary

 TemperatureHumidityPressure
High50 °F (Mar 17, 10:20 AM)100% (Mar 19, 6:20 AM)30.69 "Hg (Mar 19, 6:20 AM)
Low37 °F (Mar 26, 11:20 AM)39% (Mar 21, 9:50 AM)28.85 "Hg (Mar 28, 8:20 PM)
Average44 °F78%29.90 "Hg
* Reported Mar 15 6:20 PM — Mar 30 7:20 PM, Drammen, Weather by CustomWeather, © 2015

Note: Actual official high and low records may vary slightly from our data, if they occured in-between our weather recording intervals... More about our weather records

Advertising

Drammen weather history for previous 24 hours

 ConditionsComfort  
Time TempWeatherWind HumidityBarometerVisibility
7:20 PM
Mon, Mar 30
41 °FPassing clouds.23 mph61%29.12 "HgN/A
6:50 PM41 °FPassing clouds.23 mph70%29.12 "HgN/A
6:20 PM39 °FPassing clouds.24 mph75%29.12 "HgN/A
5:50 PM39 °FBroken clouds.25 mph70%29.15 "HgN/A
5:20 PM39 °FSprinkles. Partly sunny.22 mph70%29.15 "HgN/A
4:50 PM39 °FPartly sunny.23 mph65%29.15 "HgN/A
4:20 PM41 °FBroken clouds.32 mph66%29.12 "HgN/A
3:50 PM41 °FLight rain. Partly sunny.26 mph76%29.12 "HgN/A
3:20 PM43 °FPartly sunny.22 mph66%29.15 "HgN/A
2:50 PM41 °FPassing clouds.29 mph70%29.15 "HgN/A
2:20 PM41 °FPartly sunny.29 mph76%29.12 "HgN/A
1:50 PM43 °FScattered clouds.30 mph66%29.12 "HgN/A
1:20 PM41 °FPartly sunny.22 mph76%29.12 "HgN/A
12:50 PM41 °FPartly sunny.20 mph70%29.12 "HgN/A
12:20 PM41 °FSprinkles. Partly sunny.23 mph76%29.12 "HgN/A
11:50 AM43 °FScattered clouds.21 mph71%29.09 "HgN/A
11:20 AM41 °FSprinkles. Partly sunny.17 mph81%29.09 "HgN/A
10:50 AM37 °FSprinkles. Broken clouds.13 mph93%29.09 "HgN/A
10:20 AM39 °FSprinkles. Partly sunny.10 mph87%29.09 "HgN/A
9:50 AM37 °FLight rain. Partly sunny.13 mph87%29.09 "HgN/A
9:20 AM39 °FLight rain. Partly sunny.22 mph81%29.09 "Hg4 mi
8:50 AM41 °FBroken clouds.15 mph76%29.06 "HgN/A
8:20 AM43 °FBroken clouds.9 mph71%29.06 "HgN/A
7:50 AM41 °FPassing clouds.9 mph70%29.06 "HgN/A
7:20 AM39 °FPassing clouds.8 mph75%29.06 "HgN/A
6:50 AM39 °FPassing clouds.10 mph75%29.03 "HgN/A
6:20 AM39 °FPassing clouds.13 mph81%29.03 "HgN/A
5:50 AM39 °FPassing clouds.7 mph75%29.03 "HgN/A
5:20 AM39 °FPartly cloudy.9 mph81%29.03 "HgN/A
4:50 AM39 °FChilly.6 mph70%29.03 "HgN/A
4:20 AM39 °FPassing clouds.3 mph75%29.03 "HgN/A
3:50 AM41 °FPassing clouds.1 mph70%29.03 "HgN/A
3:20 AM41 °FPassing clouds.2 mph70%29.03 "HgN/A
2:50 AM41 °FPassing clouds.3 mph70%29.03 "HgN/A
2:20 AM41 °FPassing clouds.3 mph70%29.03 "HgN/A
1:50 AM41 °FQuite cool.3 mph70%29.00 "HgN/A
1:20 AM39 °FChilly.6 mph75%29.00 "HgN/A
12:50 AM39 °FChilly.5 mph75%29.00 "HgN/A
12:20 AM39 °FChilly.7 mph75%29.00 "HgN/A
11:50 PM
Sun, Mar 29
39 °FChilly.3 mph70%29.00 "HgN/A
11:20 PM39 °FPassing clouds.2 mph70%29.03 "HgN/A
10:50 PM39 °FPassing clouds.3 mph75%29.03 "HgN/A
10:20 PM39 °FPassing clouds.6 mph70%29.03 "HgN/A
9:50 PM39 °FSprinkles. Passing clouds.9 mph70%29.03 "HgN/A
9:20 PM37 °FPassing clouds.7 mph87%29.03 "HgN/A
8:50 PM39 °FSprinkles. Partly sunny.14 mph81%29.03 "HgN/A
8:20 PM39 °FScattered clouds.17 mph81%29.03 "HgN/A
Weather by CustomWeather, © 2015

See weather overviewHow to use our weather pages